Location: ??????
(38.1303°N, 24.0039°E)
Time: 02:22:18
(UTC+00:00)

Cosmos 1825 - Pass Details

Date: 20 June 2021
Orbit: 501 x 506 km, 82.5° (Epoch: 05 August)

Event Time Altitude Azimuth Distance (km) Brightness Sun altitude
Exits shadow 00:13:01 18° 304° (WNW) 1,303 4.3 -23.5°
Drops below altitude 10° 00:14:54 10° 332° (NNW) 1,724 5.3 -23.3°
Sets 00:17:30 0° 351° (N) 2,613 6.6 -23.1°
